Location: Mauries
(43.6188°N, 0.3322°W)
Time: 19:18:06
(UTC+00:00)

Cosmos 1707 Rocket - Pass Details

Date: 14 January 2026
Orbit: 598 x 624 km, 82.5° (Epoch: 10 February)

Event Time Altitude Azimuth Distance (km) Brightness Sun altitude
Rises 06:54:02 0° 347° (NNW) 2,857 6.6 -7.0°
Reaches altitude 10° 06:56:17 10° 343° (NNW) 1,951 5.7 -6.7°
Maximum altitude 07:00:29 54° 266° (W) 737 3.7 -6.0°
Drops below altitude 10° 07:04:40 10° 189° (S) 1,946 6.3 -5.3°
Sets 07:06:54 0° 185° (S) 2,848 7.2 -4.9°
